This is the latest recevied weather packets stored in our database for station/object OE6PLD-13. If no packets are shown the sender has not sent any weather packets the latest 10 day(s).
| Time | Temp. | Humidity | Pressure | Rain* | Wind** | Luminosity | Snow |
|---|---|---|---|---|---|---|---|
| 1777430503 | 12.22° C | 52% | 1015.1 hPa | 0.76 mm | - | 0 W/m² | - |
| 1777430320 | 12.22° C | 50% | 1015.1 hPa | 0.76 mm | - | 0 W/m² | - |
| 1777430137 | 12.22° C | 50% | 1014.9 hPa | 0.76 mm | - | 0 W/m² | - |
| 1777429953 | 12.22° C | 49% | 1015 hPa | 0.76 mm | - | 0 W/m² | - |
| 1777429770 | 12.22° C | 49% | 1014.9 hPa | 0.76 mm | - | 0 W/m² | - |
| 1777429587 | 12.22° C | 48% | 1014.7 hPa | 0.76 mm | - | 0 W/m² | - |
| 1777429403 | 12.22° C | 48% | 1014.8 hPa | 0.76 mm | - | 0 W/m² | - |
| 1777429220 | 12.22° C | 48% | 1015 hPa | 0.76 mm | - | 0 W/m² | - |
| 1777429037 | 12.22° C | 49% | 1014.9 hPa | 0.76 mm | - | 0 W/m² | - |
| 1777428853 | 12.22° C | 50% | 1014.9 hPa | 0.76 mm | - | 0 W/m² | - |
| 1777428670 | 12.22° C | 49% | 1014.9 hPa | 0.76 mm | - | 0 W/m² | - |
| 1777428487 | 12.22° C | 50% | 1015 hPa | 0.76 mm | - | 0 W/m² | - |
| 1777428303 | 12.22° C | 51% | 1014.8 hPa | 0.76 mm | - | 0 W/m² | - |
| 1777428120 | 12.22° C | 50% | 1014.8 hPa | 0.76 mm | - | 0 W/m² | - |
| 1777427937 | 12.22° C | 52% | 1014.7 hPa | 0.76 mm | - | 0 W/m² | - |
| 1777427753 | 12.22° C | 51% | 1014.8 hPa | 0.76 mm | - | 0 W/m² | - |
| 1777427570 | 12.22° C | 51% | 1014.7 hPa | 0.76 mm | - | 0 W/m² | - |
| 1777427387 | 12.22° C | 51% | 1014.8 hPa | 0.76 mm | - | 0 W/m² | - |
| 1777427203 | 12.22° C | 50% | 1014.8 hPa | 0.76 mm | - | 0 W/m² | - |
| 1777427020 | 12.22° C | 53% | 1014.8 hPa | 0.76 mm | - | 0 W/m² | - |
| 1777426837 | 12.22° C | 50% | 1014.8 hPa | 0.76 mm | - | 0 W/m² | - |
| 1777426653 | 12.22° C | 52% | 1014.7 hPa | 0.76 mm | - | 0 W/m² | - |
| 1777426470 | 12.22° C | 51% | 1014.6 hPa | 0.76 mm | - | 0 W/m² | - |
| 1777426287 | 12.22° C | 50% | 1015 hPa | 0.76 mm | - | 0 W/m² | - |
| 1777426103 | 12.22° C | 51% | 1014.7 hPa | 0.76 mm | - | 0 W/m² | - |
* Rain latest hour (hover to see other rain measurements)
** Current wind speed in m/s (hover to see current wind gust speed)